EHI
0 0 0 0 0 0 0 0 0 0 0 0 2 5 8 10 14 24 34 38 39 42 46 45 40 38 39 41 43 40 32 24 18 12 5 2 2 2 2 2 1 1 0 0
0 0 0 0 0 0 0 0 0 0 0 0 1 5 10 11 12 17 26 32 33 35 40 40 33 29 29 32 36 37 34 27 20 14 7 3 2 2 2 2 2 2 1 0
0 0 0 0 0 0 0 0 0 0 0 0 1 5 10 11 10 11 17 24 28 29 32 30 24 18 18 23 29 35 41 40 32 21 11 4 3 3 2 3 4 3 2 1
0 0 0 0 0 0 0 0 0 0 0 0 0 2 6 9 9 9 13 19 22 22 23 22 17 12 12 18 26 41 56 60 51 36 19 7 3 3 3 4 5 4 3 2
0 0 0 0 0 0 0 0 0 0 0 0 0 1 4 6 7 8 11 14 13 12 14 15 13 9 9 12 25 49 71 74 63 47 28 14 6 3 3 4 4 3 2 1
0 0 0 0 0 0 0 0 0 0 0 0 0 0 1 3 4 6 9 11 8 6 9 11 11 11 10 12 25 52 75 78 65 48 33 20 10 4 3 2 2 1 1 0
0 0 0 0 0 0 0 0 0 0 0 0 0 0 1 2 2 3 6 8 6 5 8 10 11 13 15 17 27 50 72 75 60 43 29 19 9 3 1 1 1 0 0 0
0 0 0 0 0 0 0 0 0 0 0 0 0 0 1 2 1 1 2 4 4 4 6 7 9 13 18 23 29 45 64 65 48 31 20 11 5 1 0 0 0 0 0 0
0 0 0 0 0 0 0 0 0 0 0 0 0 0 1 2 1 0 0 1 2 3 3 3 5 9 17 25 32 42 52 48 31 19 12 6 2 0 0 0 0 0 0 0
0 0 0 0 0 0 0 0 0 0 0 0 0 0 1 2 2 1 0 0 1 2 1 1 3 5 11 22 30 37 38 30 18 11 7 3 0 0 0 0 0 0 0 0
0 0 0 0 0 0 0 0 0 0 0 0 0 0 0 1 1 1 0 0 0 1 0 0 1 3 7 14 22 25 23 17 10 5 3 1 0 0 0 0 0 0 0 0
0 0 0 0 0 0 0 0 0 0 0 0 0 0 0 0 0 0 0 0 0 0 0 0 2 5 7 9 11 11 10 7 4 2 1 0 0 0 0 0 0 0 0 0
0 0 0 0 0 0 0 0 0 0 0 0 0 0 0 0 0 0 0 0 0 1 1 4 10 14 12 8 6 4 3 1 1 1 0 0 0 0 0 0 0 0 0 0
0 0 0 0 0 0 0 0 0 0 0 0 0 0 0 0 0 0 0 0 1 2 5 12 25 31 22 11 6 3 1 0 0 0 0 0 0 0 0 0 0 0 0 0
0 0 0 0 0 0 0 0 0 0 0 0 0 0 0 0 0 0 0 0 1 3 7 19 36 44 35 19 9 4 1 0 0 0 0 0 0 0 0 0 0 0 0 0
0 0 0 0 0 0 0 0 0 0 0 0 0 0 0 0 0 0 0 0 1 2 8 20 38 50 47 30 15 7 4 2 1 1 0 0 0 0 0 0 0 0 0 0
0 0 0 0 0 0 0 0 0 0 0 0 0 0 0 0 0 0 0 0 0 1 7 17 33 51 54 39 22 12 8 6 4 3 2 1 0 0 0 0 0 1 1 0
0 0 0 0 0 0 0 0 0 0 0 0 0 0 0 0 0 0 0 0 0 0 4 10 21 36 44 36 23 16 10 7 6 6 4 3 2 1 1 2 2 3 3 2
1 1 0 0 0 0 0 0 0 0 1 1 1 0 0 0 0 0 0 0 0 0 1 3 6 16 29 36 32 23 14 8 7 6 6 6 5 4 4 4 5 6 5 4
0 0 0 0 0 0 0 0 0 0 1 2 1 0 0 0 1 1 1 2 2 2 3 3 3 11 32 52 54 43 27 16 11 8 8 8 9 9 7 7 8 8 6 4
0 0 0 0 0 1 1 2 3 4 3 1 1 1 1 1 3 4 7 11 13 13 12 14 17 26 48 69 73 64 50 36 24 16 13 13 13 11 9 10 11 11 7 4
0 0 0 1 2 4 5 4 5 7 4 1 0 0 1 2 5 11 18 25 28 26 24 28 37 47 61 73 78 75 67 56 41 29 22 19 16 12 11 13 14 14 10 5
0 0 1 3 6 7 6 4 4 4 2 0 0 0 0 2 6 13 21 28 30 28 28 33 45 58 66 73 77 77 73 64 53 42 34 26 19 15 15 15 14 12 9 5
0 0 2 5 8 7 4 2 1 0 0 0 0 0 0 1 4 8 15 21 22 22 24 30 40 51 58 65 68 70 68 63 57 51 43 31 20 16 16 15 13 10 7 5
0 0 2 6 8 6 3 1 0 0 0 0 0 0 0 0 1 4 10 15 18 18 19 24 30 36 41 46 49 51 55 56 53 49 38 23 13 10 11 11 11 9 7 6
0 0 3 7 9 6 2 0 0 0 0 0 0 0 0 0 0 2 8 12 14 14 15 18 22 26 29 31 33 38 45 48 47 41 27 12 6 4 5 7 8 6 4 4
Wind_Speed
14 12 10 10 9 7 5 3 1 4 7 3 2 6 6 8 5 6 9 9 9 9 10 9 9 10 10 7 7 6 6 5 2 1 0 0 1 1 0 3 5 2 2 3
13 10 10 9 8 7 6 5 3 4 5 3 2 5 6 7 6 5 8 10 10 10 10 10 9 9 9 8 7 6 6 5 4 2 1 1 1 2 1 2 3 3 2 2
11 6 5 7 7 6 6 6 6 5 3 1 1 2 2 1 4 5 7 10 10 11 11 11 10 10 10 9 9 8 7 6 5 3 2 2 1 2 1 1 1 3 2 2
9 7 6 8 7 7 5 6 6 5 3 2 3 1 4 6 6 7 8 10 11 11 11 11 11 11 10 10 10 8 7 6 5 4 3 3 2 2 1 0 1 2 1 2
9 9 7 7 6 8 7 6 9 11 7 5 5 2 4 8 8 9 9 10 10 12 12 12 12 11 10 10 9 9 8 6 5 4 3 3 3 2 2 3 2 1 3 3
11 10 8 6 4 4 7 5 9 10 6 3 10 5 5 7 9 10 11 11 11 12 12 12 11 10 8 8 8 8 9 7 6 5 4 3 2 2 3 3 3 3 3 2
9 7 6 8 6 2 7 4 1 1 0 7 12 3 6 7 9 10 12 13 12 12 12 12 11 10 9 8 8 8 9 8 6 6 4 3 2 2 4 4 4 2 2 2
7 6 6 9 8 5 8 8 5 5 2 4 6 6 9 9 8 9 11 12 12 12 12 12 12 10 9 9 8 7 8 8 6 5 4 3 2 2 3 1 2 3 3 3
6 5 7 6 6 7 7 8 9 7 7 3 1 9 11 9 10 8 10 12 12 12 12 12 11 10 9 8 7 7 8 7 6 5 5 4 4 3 3 3 3 4 2 3
7 9 6 5 7 7 7 9 7 7 5 3 4 3 7 9 9 10 9 11 11 11 12 12 11 10 9 8 7 7 8 6 5 4 4 4 5 5 5 4 4 3 4 4
7 8 7 5 6 8 6 7 5 6 7 5 1 1 7 8 9 10 11 11 11 11 11 11 10 9 9 9 9 8 7 6 5 4 4 2 2 3 3 4 4 5 4 4
6 7 8 6 9 12 9 9 6 5 5 6 3 4 4 4 7 8 8 10 10 9 8 9 10 9 8 9 9 9 8 7 7 6 5 5 4 4 4 5 4 4 4 4
7 6 8 6 11 13 13 12 10 6 4 5 5 2 3 2 4 6 5 7 7 7 6 6 9 9 8 7 8 9 9 8 8 7 6 6 6 5 5 5 4 4 4 4
5 8 11 10 5 8 10 14 12 9 6 5 5 2 5 5 4 5 6 5 6 7 6 5 7 7 7 6 6 6 6 6 6 6 6 6 6 5 5 4 4 4 4 5
6 9 12 12 7 10 13 13 11 10 8 8 7 6 1 3 4 3 4 5 5 6 8 7 7 8 7 6 6 6 6 5 5 5 5 5 5 5 5 5 4 4 5 7
6 8 12 14 11 11 13 12 10 9 8 7 6 3 5 5 3 2 0 2 4 5 7 9 9 10 9 8 8 7 7 6 6 5 5 5 4 4 5 5 5 5 5 5
9 9 11 13 12 10 9 9 9 7 5 4 3 1 2 1 2 1 1 3 3 4 5 7 9 10 10 10 9 8 8 7 7 7 6 6 5 6 5 6 5 5 5 5
8 7 7 12 13 15 5 2 4 4 3 3 3 2 2 2 1 2 3 3 2 2 4 5 7 9 10 10 10 9 9 8 8 8 8 7 6 6 6 5 5 5 4 5
6 6 8 10 13 11 6 6 6 6 6 7 5 5 6 5 4 2 2 0 1 3 3 4 6 9 10 11 11 11 9 9 9 9 8 8 7 6 5 5 5 5 5 5
6 5 8 11 13 13 2 3 1 1 2 9 8 8 9 7 5 3 3 2 3 2 1 3 5 6 8 10 10 11 11 10 10 9 8 7 6 6 5 5 5 5 5 6
9 9 10 12 13 5 6 3 1 2 2 8 8 8 8 7 6 7 7 7 5 4 2 1 2 3 4 7 8 9 9 9 9 7 7 7 6 6 6 6 5 6 7 7
10 10 10 8 9 2 8 6 5 4 4 8 10 10 10 9 10 10 10 10 10 8 7 5 2 2 1 4 6 7 7 5 4 5 6 6 6 7 7 7 6 7 7 8
6 6 3 1 2 6 6 6 3 3 5 7 9 10 10 10 11 11 12 11 11 11 9 8 6 4 3 0 3 5 5 4 5 5 6 6 6 6 6 6 7 8 8 9
4 4 4 2 7 8 7 6 6 6 6 8 9 10 11 11 12 12 11 11 12 12 11 10 10 8 6 4 2 2 3 4 5 6 6 6 6 7 8 7 8 9 9 8
6 2 4 1 8 10 7 5 7 9 9 10 10 12 12 12 12 12 11 11 11 11 11 10 10 8 8 7 5 3 2 2 4 5 6 7 8 9 8 9 9 9 8 8
4 3 2 3 5 7 8 6 7 9 9 9 10 11 12 12 12 11 10 10 10 11 10 10 10 9 9 8 7 6 4 3 4 6 7 8 8 8 9 9 9 14 15 15
Wind_Direction
254 247 277 295 305 317 335 347 64 239 266 281 131 148 182 221 215 161 141 138 145 151 148 146 145 141 141 143 142 144 143 135 142 138 165 36 44 343 28 110 107 75 38 18
259 257 268 298 313 321 343 350 324 276 259 269 135 123 165 207 203 161 145 145 151 151 147 148 155 152 156 158 157 157 155 161 175 161 158 205 252 279 263 86 125 118 68 359
292 300 299 296 312 324 331 299 270 264 255 346 57 125 155 189 202 164 156 153 155 161 160 159 168 167 170 171 173 176 174 173 180 181 209 250 222 257 258 78 111 89 52 333
304 305 294 295 304 303 298 293 302 300 297 337 307 257 223 205 214 180 176 163 163 165 167 168 175 178 180 180 181 178 170 173 174 188 231 269 279 293 331 11 76 77 289 257
286 287 287 292 300 314 322 344 6 10 3 349 288 224 206 189 198 187 180 170 167 167 173 174 180 185 188 186 181 173 166 170 175 193 218 249 284 322 4 18 11 341 269 232
289 292 295 295 296 323 322 359 28 26 20 323 252 224 164 176 182 174 170 170 170 174 176 175 182 182 188 186 180 167 163 167 174 194 218 223 261 313 322 318 302 289 279 257
286 284 298 294 276 288 287 295 344 351 165 246 241 207 123 138 152 159 162 169 176 177 179 178 183 183 188 192 184 172 160 164 177 193 206 211 220 256 257 253 266 275 295 307
301 297 255 253 268 276 272 286 288 304 259 208 217 126 121 127 132 147 156 164 173 178 182 183 186 187 188 192 184 173 155 159 175 191 190 192 207 253 269 306 349 324 305 310
291 280 228 260 292 292 293 302 310 303 308 339 44 113 119 132 142 153 159 163 175 184 185 185 187 185 184 183 173 163 146 157 177 190 176 184 203 233 285 320 283 269 280 296
292 303 294 263 263 255 279 303 314 318 327 3 33 24 137 152 158 165 172 174 182 186 188 187 182 181 173 169 153 144 143 160 177 193 199 210 191 205 217 240 271 295 294 284
295 295 291 283 290 297 264 273 297 315 328 334 54 155 146 160 165 174 181 182 186 192 192 184 175 167 163 158 148 149 154 165 181 201 206 231 223 235 236 233 240 248 256 268
309 295 303 324 347 335 301 282 275 285 317 313 339 85 95 135 157 174 181 177 181 186 188 173 162 154 159 166 163 164 169 179 186 193 193 200 212 227 242 252 250 252 256 261
336 316 300 323 4 344 320 296 286 274 277 294 314 120 162 177 167 157 162 163 166 167 180 172 155 156 166 172 173 174 180 189 189 187 188 198 208 221 228 239 251 258 263 266
293 284 289 288 233 220 257 272 279 273 269 284 289 255 192 200 188 166 168 175 180 170 169 176 155 154 164 170 169 175 187 189 189 186 191 200 207 222 231 236 241 250 259 263
280 281 289 289 253 232 244 252 259 264 272 280 293 300 293 149 142 150 174 180 189 174 173 176 167 159 167 173 173 180 190 188 191 189 202 206 207 214 223 232 237 243 252 265
274 282 295 292 283 270 273 272 274 274 275 278 284 311 50 79 87 91 191 206 197 193 194 184 179 174 177 182 186 190 192 189 180 194 211 214 212 220 226 231 237 242 246 254
273 275 279 285 293 289 283 298 302 297 293 291 294 25 66 101 95 91 280 258 228 211 205 192 183 181 180 185 188 193 190 188 186 193 207 213 212 220 225 237 243 248 257 263
267 273 278 280 283 280 287 274 288 290 316 337 359 11 36 74 98 231 245 266 274 249 221 192 184 180 181 185 188 191 191 190 195 198 206 210 213 222 223 227 237 244 249 257
274 261 266 275 278 276 296 344 349 357 3 8 30 31 32 27 333 357 83 99 257 252 218 193 198 198 185 187 186 185 196 194 199 204 205 209 212 218 223 232 237 242 247 255
270 245 255 265 275 288 331 138 224 332 359 7 29 21 8 355 339 44 51 329 294 273 240 205 211 211 184 182 181 184 195 199 204 206 203 203 204 210 222 234 241 246 249 256
246 236 243 264 272 291 45 93 185 209 50 354 8 12 358 5 348 349 352 0 359 353 337 283 235 222 192 176 177 188 198 204 204 202 199 196 196 202 216 226 230 238 246 254
240 243 241 256 274 351 13 35 51 45 18 8 4 5 6 2 1 4 10 17 14 4 359 355 351 324 234 174 176 193 207 206 202 203 205 203 200 214 221 214 223 233 242 254
270 289 303 272 164 126 85 97 109 72 45 21 14 14 14 15 17 19 23 22 21 18 11 6 5 358 0 13 182 204 205 199 209 210 212 214 215 218 225 228 234 238 238 246
316 343 330 32 99 104 102 105 94 76 62 48 38 32 31 31 30 29 29 25 21 19 14 11 10 10 8 359 322 244 218 205 212 222 224 226 229 232 233 232 237 241 245 247
294 238 246 180 123 115 92 87 88 77 64 54 48 45 40 37 34 33 33 27 22 19 16 14 10 5 3 358 349 336 308 251 242 245 246 248 247 245 243 239 238 240 244 247
333 345 317 95 131 123 128 118 92 83 76 68 56 49 42 38 32 32 31 26 21 18 15 12 6 4 0 356 351 344 337 319 286 270 264 262 259 255 251 248 245 232 232 237